TimeEST,TemperatureF,Dew PointF,Humidity,Sea Level PressureIn,VisibilityMPH,Wind Direction,Wind SpeedMPH,Gust SpeedMPH,PrecipitationIn,Events,Conditions,WindDirDegrees,DateUTC
12:15 AM,28.4,-9999,N/A,29.74,0.8,NNW,19.6,-,N/A,,Overcast,330,2013-02-09 05:15:00
12:35 AM,28.4,-9999,N/A,29.75,1.0,NNW,17.3,24.2,N/A,,Overcast,330,2013-02-09 05:35:00
12:55 AM,28.4,-9999,N/A,29.74,1.0,North,23.0,26.5,N/A,,Overcast,350,2013-02-09 05:55:00
1:15 AM,28.4,-9999,N/A,29.75,1.2,North,19.6,33.4,N/A,,Overcast,10,2013-02-09 06:15:00
1:35 AM,28.4,-9999,N/A,29.76,1.0,North,18.4,23.0,N/A,,Overcast,360,2013-02-09 06:35:00
1:55 AM,28.4,-9999,N/A,29.76,1.2,North,9.2,-,N/A,,Overcast,350,2013-02-09 06:55:00
2:15 AM,28.4,-9999,N/A,29.77,1.2,NNW,8.1,-,0.01,,Overcast,340,2013-02-09 07:15:00
2:35 AM,28.4,-9999,N/A,29.78,2.5,NW,9.2,-,0.01,,Overcast,320,2013-02-09 07:35:00
2:55 AM,28.4,-9999,N/A,29.78,1.0,NW,12.7,18.4,0.01,,Overcast,320,2013-02-09 07:55:00
3:15 AM,28.4,-9999,N/A,29.78,0.8,NNW,12.7,21.9,0.01,,Overcast,330,2013-02-09 08:15:00
3:35 AM,28.4,-9999,N/A,29.79,1.8,NW,11.5,-,0.02,,Overcast,320,2013-02-09 08:35:00
3:55 AM,28.4,-9999,N/A,29.80,2.5,NW,11.5,-,0.02,,Overcast,320,2013-02-09 08:55:00
4:15 AM,28.4,-9999,N/A,29.81,5.0,NW,15.0,19.6,N/A,,Overcast,320,2013-02-09 09:15:00
4:35 AM,30.2,-9999,N/A,29.81,5.0,NW,15.0,19.6,N/A,,Overcast,310,2013-02-09 09:35:00
4:55 AM,30.2,-9999,N/A,29.81,3.0,NW,18.4,26.5,0.01,,Overcast,320,2013-02-09 09:55:00
5:15 AM,30.2,-9999,N/A,29.83,2.5,WNW,20.7,32.2,N/A,,Overcast,300,2013-02-09 10:15:00
5:35 AM,28.4,-9999,N/A,29.84,3.0,WNW,16.1,26.5,N/A,,Overcast,300,2013-02-09 10:35:00
5:55 AM,26.6,-9999,N/A,29.85,8.0,WNW,17.3,27.6,N/A,,Mostly Cloudy,300,2013-02-09 10:55:00
6:15 AM,26.6,-9999,N/A,29.86,10.0,WNW,17.3,25.3,N/A,,Overcast,300,2013-02-09 11:15:00
6:35 AM,26.6,-9999,N/A,29.88,10.0,WNW,18.4,28.8,N/A,,Overcast,290,2013-02-09 11:35:00
6:55 AM,26.6,-9999,N/A,29.88,10.0,WNW,18.4,25.3,N/A,,Mostly Cloudy,300,2013-02-09 11:55:00
7:15 AM,26.6,-9999,N/A,29.90,10.0,WNW,18.4,26.5,N/A,,Mostly Cloudy,300,2013-02-09 12:15:00
7:35 AM,26.6,-9999,N/A,29.91,10.0,WNW,18.4,25.3,N/A,,Mostly Cloudy,300,2013-02-09 12:35:00
7:55 AM,26.6,-9999,N/A,29.92,10.0,WNW,21.9,27.6,N/A,,Overcast,290,2013-02-09 12:55:00
8:15 AM,26.6,-9999,N/A,29.92,9.0,WNW,20.7,26.5,N/A,,Mostly Cloudy,300,2013-02-09 13:15:00
8:35 AM,26.6,-9999,N/A,29.93,8.0,WNW,25.3,32.2,N/A,,Partly Cloudy,300,2013-02-09 13:35:00
8:55 AM,26.6,-9999,N/A,29.93,7.0,WNW,23.0,32.2,N/A,,Scattered Clouds,300,2013-02-09 13:55:00
9:15 AM,26.6,-9999,N/A,29.95,7.0,NW,18.4,31.1,N/A,,Mostly Cloudy,310,2013-02-09 14:15:00
9:35 AM,26.6,-9999,N/A,29.96,10.0,WNW,18.4,28.8,N/A,,Mostly Cloudy,300,2013-02-09 14:35:00
9:55 AM,26.6,-9999,N/A,29.97,9.0,WNW,20.7,31.1,N/A,,Partly Cloudy,300,2013-02-09 14:55:00
10:15 AM,26.6,-9999,N/A,29.98,9.0,NW,18.4,31.1,N/A,,Partly Cloudy,310,2013-02-09 15:15:00
10:35 AM,28.4,-9999,N/A,30.00,4.0,NW,23.0,29.9,N/A,,Mostly Cloudy,310,2013-02-09 15:35:00
10:55 AM,28.4,-9999,N/A,30.00,8.0,NW,20.7,29.9,N/A,,Scattered Clouds,310,2013-02-09 15:55:00
11:15 AM,28.4,-9999,N/A,30.01,3.0,NW,19.6,33.4,N/A,,Clear,310,2013-02-09 16:15:00
11:35 AM,28.4,-9999,N/A,30.01,1.2,NW,25.3,35.7,N/A,,Clear,310,2013-02-09 16:35:00
11:55 AM,28.4,-9999,N/A,30.01,3.0,NW,23.0,28.8,N/A,,Clear,320,2013-02-09 16:55:00
12:15 PM,30.2,-9999,N/A,30.02,9.0,NW,23.0,28.8,N/A,,Clear,310,2013-02-09 17:15:00
12:35 PM,30.2,-9999,N/A,30.03,4.0,NW,26.5,33.4,N/A,,Clear,310,2013-02-09 17:35:00
12:55 PM,30.2,-9999,N/A,30.03,8.0,NW,25.3,35.7,N/A,,Clear,310,2013-02-09 17:55:00
1:15 PM,30.2,-9999,N/A,30.04,5.0,NW,25.3,34.5,N/A,,Clear,320,2013-02-09 18:15:00
1:35 PM,30.2,-9999,N/A,30.05,7.0,NW,27.6,36.8,N/A,,Clear,310,2013-02-09 18:35:00
1:55 PM,30.2,-9999,N/A,30.05,5.0,NW,26.5,34.5,N/A,,Clear,320,2013-02-09 18:55:00
2:15 PM,32.0,-9999,N/A,30.06,10.0,WNW,20.7,26.5,N/A,,Clear,300,2013-02-09 19:15:00
2:35 PM,32.0,-9999,N/A,30.06,8.0,WNW,19.6,31.1,N/A,,Clear,290,2013-02-09 19:35:00
2:55 PM,32.0,-9999,N/A,30.06,10.0,NW,17.3,29.9,N/A,,Clear,310,2013-02-09 19:55:00
3:15 PM,32.0,-9999,N/A,30.07,10.0,WNW,25.3,29.9,N/A,,Clear,300,2013-02-09 20:15:00
3:35 PM,33.8,-9999,N/A,30.07,10.0,NW,17.3,25.3,N/A,,Clear,310,2013-02-09 20:35:00
3:55 PM,32.0,-9999,N/A,30.09,10.0,NW,24.2,31.1,N/A,,Clear,310,2013-02-09 20:55:00
4:15 PM,32.0,-9999,N/A,30.10,10.0,NW,24.2,31.1,N/A,,Clear,310,2013-02-09 21:15:00
4:35 PM,32.0,-9999,N/A,30.12,10.0,WNW,21.9,26.5,N/A,,Clear,300,2013-02-09 21:35:00
4:55 PM,32.0,-9999,N/A,30.13,10.0,NW,20.7,26.5,N/A,,Clear,310,2013-02-09 21:55:00
5:15 PM,30.2,-9999,N/A,30.14,10.0,WNW,13.8,-,N/A,,Clear,300,2013-02-09 22:15:00
5:35 PM,30.2,-9999,N/A,30.15,10.0,WNW,18.4,25.3,N/A,,Clear,300,2013-02-09 22:35:00
5:55 PM,30.2,-9999,N/A,30.17,10.0,NW,15.0,24.2,N/A,,Clear,310,2013-02-09 22:55:00
6:15 PM,30.2,-9999,N/A,30.18,10.0,NW,16.1,21.9,N/A,,Clear,310,2013-02-09 23:15:00
6:35 PM,28.4,-9999,N/A,30.20,10.0,NW,17.3,24.2,N/A,,Clear,310,2013-02-09 23:35:00
6:55 PM,28.4,-9999,N/A,30.20,10.0,NW,15.0,19.6,N/A,,Clear,320,2013-02-09 23:55:00
7:15 PM,26.6,-9999,N/A,30.20,10.0,NW,11.5,-,N/A,,Clear,310,2013-02-10 00:15:00
7:35 PM,26.6,-9999,N/A,30.21,10.0,NW,15.0,21.9,N/A,,Clear,320,2013-02-10 00:35:00
7:55 PM,26.6,-9999,N/A,30.23,10.0,NW,11.5,-,N/A,,Clear,310,2013-02-10 00:55:00
8:35 PM,26.6,-9999,N/A,30.26,10.0,NW,11.5,-,N/A,,Clear,310,2013-02-10 01:35:00
8:55 PM,24.8,-9999,N/A,30.27,10.0,NW,16.1,-,N/A,,Clear,310,2013-02-10 01:55:00
9:15 PM,24.8,-9999,N/A,30.28,10.0,NW,11.5,17.3,N/A,,Clear,310,2013-02-10 02:15:00
9:35 PM,24.8,-9999,N/A,30.29,10.0,NW,15.0,-,N/A,,Clear,310,2013-02-10 02:35:00
9:55 PM,24.8,-9999,N/A,30.30,10.0,NW,15.0,-,N/A,,Clear,320,2013-02-10 02:55:00
10:15 PM,23.0,-9999,N/A,30.30,10.0,NNW,15.0,20.7,N/A,,Clear,330,2013-02-10 03:15:00
10:35 PM,23.0,-9999,N/A,30.31,10.0,NW,13.8,-,N/A,,Clear,320,2013-02-10 03:35:00
10:55 PM,21.2,-9999,N/A,30.32,10.0,NW,12.7,-,N/A,,Clear,320,2013-02-10 03:55:00
11:15 PM,21.2,-9999,N/A,30.32,10.0,NW,13.8,-,N/A,,Clear,320,2013-02-10 04:15:00
11:35 PM,21.2,-9999,N/A,30.32,10.0,NW,12.7,-,N/A,,Clear,320,2013-02-10 04:35:00
11:55 PM,21.2,-9999,N/A,30.33,10.0,NW,15.0,-,N/A,,Clear,320,2013-02-10 04:55:00